Home > Weather > Walsrode > Past weeks

Flag for Germany Weather for the Past 2 Weeks in Walsrode, Lower Saxony, Germany

Now
45 °F

Partly sunny.


Feels Like: 41 °F
Forecast: 36 / 42 °F
Wind: 6 mph from South

Location: Fassberg

Current Time: Feb 9, 2016 at 3:31:07 PM

Latest Report: Feb 9, 2016 at 2:20 PM


Visibility: N/A

Pressure: 29.15 "Hg

Humidity: 71%

Dew point: 36 °F

Location of WalsrodeLocation

Historic Weather in Walsrode — Graph

°F

Walsrode Temperature Yesterday

Maximum temperature yesterday: 50 °F (at 3:20 PM)
Minimum temperature yesterday: 41 °F (at 1:20 AM)
Average temperature yesterday: 45 °F

High & Low Weather Summary for the Past Weeks

 TemperatureHumidityPressure
High55 °F (Feb 7, 1:20 PM)100% (Jan 25, 1:20 PM)30.24 "Hg (Jan 25, 1:20 PM)
Low34 °F (Jan 31, 3:20 AM)55% (Feb 7, 1:20 PM)29.18 "Hg (Feb 8, 2:20 PM)
Average44 °F82%29.82 "Hg
* Reported Jan 25 1:20 PM — Feb 9 1:20 PM, Walsrode, Weather by CustomWeather, © 2016

Note: Actual official high and low records may vary slightly from our data, if they occured in-between our weather recording intervals... More about our weather records

Advertising

Walsrode Weather History for the Previous 24 Hours

 ConditionsComfort  
Time TempWeatherWind HumidityBarometerVisibility
1:20 PM
Tue, Feb 9
43 °FBroken clouds.3 mph87%29.21 "HgN/A
12:20 PM41 °FPartly sunny.3 mph87%29.27 "HgN/A
10:20 AM43 °FDrizzle. Broken clouds.17 mph76%29.30 "Hg6 mi
9:20 AM45 °FPartly sunny.17 mph66%29.33 "HgN/A
8:20 AM43 °FScattered clouds.14 mph71%29.33 "HgN/A
7:20 AM43 °FPassing clouds.23 mph71%29.33 "HgN/A
6:20 AM45 °FPassing clouds.23 mph66%29.30 "HgN/A
5:20 AM45 °FPassing clouds.25 mph76%29.30 "HgN/A
4:20 AM43 °FLight rain. Overcast.28 mph87%29.27 "Hg5 mi
3:20 AM43 °FRain. Fog.25 mph87%29.24 "Hg3 mi
2:55 AM43 °FRain. Fog.22 mph87%29.24 "Hg3 mi
2:20 AM43 °FRain. Fog.18 mph93%29.24 "Hg3 mi
1:20 AM43 °FRain. Fog.23 mph87%29.24 "Hg3 mi
12:20 AM43 °FRain. Overcast.22 mph87%29.21 "Hg5 mi
12:01 AM45 °FRain. Overcast.22 mph76%29.21 "Hg5 mi
11:20 PM
Mon, Feb 8
45 °FPassing clouds.24 mph76%29.21 "Hg6 mi
10:20 PM45 °FPassing clouds.22 mph76%29.21 "HgN/A
9:20 PM45 °FLight rain. Passing clouds.25 mph71%29.21 "HgN/A
9:02 PM46 °FLight rain. Passing clouds.23 mph66%29.21 "HgN/A
8:20 PM46 °FPartly cloudy.22 mph62%29.21 "HgN/A
7:20 PM46 °FPassing clouds.17 mph66%29.21 "HgN/A
6:20 PM45 °FPassing clouds.17 mph71%29.21 "HgN/A
5:20 PM45 °FPassing clouds.18 mph71%29.18 "HgN/A
5:00 PM45 °FPassing clouds.20 mph71%29.18 "HgN/A
4:20 PM45 °FPassing clouds.16 mph76%29.18 "HgN/A
3:52 PM48 °FRain showers. Partly sunny.20 mph66%29.18 "Hg5 mi
3:20 PM50 °FScattered clouds.20 mph62%29.18 "HgN/A
Weather by CustomWeather, © 2016

See weather overviewHow to use our weather pages